User: anonymous   Login
Location: Oshawa
(43.9000°N, 78.8670°W)
Time: 19:07:45
(UTC-05:00)
Language:

PAYLOAD A - Orbit

View from above orbital plane
View from above orbital plane
View from above satellite
View from above satellite

Ground track
Ground track

The orbit data is extracted from the following two-line orbital elements,

1 27840U 03031A   15064.50171038  .00000087  00000-0  39722-4 0  9991
2 27840 098.2155 087.3764 0099554 114.9449 052.5716 14.38780324613288
Epoch (UTC): 05 March 2015 12:02:27
Eccentricity: 0.0099554
inclination: 98.2155°
perigee height: 691 km
apogee height: 833 km
right ascension of ascending node: 87.3764°
argument of perigee: 114.9449°
revolutions per day: 14.38780324
mean anomaly at epoch: 52.5716°
orbit number at epoch: 61328

The dashed part of the orbit path shows where the satellite is in the earth's shadow,  

DLR